Year,Month,Day,Hour,Minute,Value (Times are PST for temperature in C)
2015,02,21,00,00,4.60
2015,02,21,00,01,4.70
2015,02,21,00,02,4.80
2015,02,21,00,03,4.80
2015,02,21,00,04,4.90
2015,02,21,00,05,4.90
2015,02,21,00,06,5.00
2015,02,21,00,07,5.00
2015,02,21,00,08,5.10
2015,02,21,00,09,5.10
2015,02,21,00,10,5.10
2015,02,21,00,11,5.10
2015,02,21,00,12,5.10
2015,02,21,00,13,5.10
2015,02,21,00,14,5.10
2015,02,21,00,15,5.10
2015,02,21,00,16,5.10
2015,02,21,00,17,5.10
2015,02,21,00,18,5.10
2015,02,21,00,19,5.10
2015,02,21,00,20,5.20
2015,02,21,00,21,5.20
2015,02,21,00,22,5.20
2015,02,21,00,23,5.30
2015,02,21,00,24,5.30
2015,02,21,00,25,5.30
2015,02,21,00,26,5.30
2015,02,21,00,27,5.40
2015,02,21,00,28,5.40
2015,02,21,00,29,5.40
2015,02,21,00,30,5.40
2015,02,21,00,31,5.40
2015,02,21,00,32,5.50
2015,02,21,00,33,5.50
2015,02,21,00,34,5.50
2015,02,21,00,35,5.60
2015,02,21,00,36,5.60
2015,02,21,00,37,5.60
2015,02,21,00,38,5.70
2015,02,21,00,39,5.70
2015,02,21,00,40,5.70
2015,02,21,00,41,5.70
2015,02,21,00,42,5.70
2015,02,21,00,43,5.70
2015,02,21,00,44,5.70
2015,02,21,00,45,5.80
2015,02,21,00,46,5.80
2015,02,21,00,47,5.80
2015,02,21,00,48,5.80
2015,02,21,00,49,5.80
2015,02,21,00,50,5.70
2015,02,21,00,51,5.70
2015,02,21,00,52,5.70
2015,02,21,00,53,5.70
2015,02,21,00,54,5.70
2015,02,21,00,55,5.70
2015,02,21,00,56,5.70
2015,02,21,00,57,5.60
2015,02,21,00,58,5.60
2015,02,21,00,59,5.60
2015,02,21,01,00,5.50
2015,02,21,01,01,5.50
2015,02,21,01,02,5.40
2015,02,21,01,03,5.40
2015,02,21,01,04,5.40
2015,02,21,01,05,5.40
2015,02,21,01,06,5.40
2015,02,21,01,07,5.30
2015,02,21,01,08,5.30
2015,02,21,01,09,5.30
2015,02,21,01,10,5.30
2015,02,21,01,11,5.30
2015,02,21,01,12,5.30
2015,02,21,01,13,5.30
2015,02,21,01,14,5.20
2015,02,21,01,15,5.20
2015,02,21,01,16,5.10
2015,02,21,01,17,5.10
2015,02,21,01,18,5.00
2015,02,21,01,19,5.00
2015,02,21,01,20,4.90
2015,02,21,01,21,4.90
2015,02,21,01,22,4.80
2015,02,21,01,23,4.80
2015,02,21,01,24,4.80
2015,02,21,01,25,4.70
2015,02,21,01,26,4.60
2015,02,21,01,27,4.60
2015,02,21,01,28,4.50
2015,02,21,01,29,4.50
2015,02,21,01,30,4.40
2015,02,21,01,31,4.40
2015,02,21,01,32,4.40
2015,02,21,01,33,4.30
2015,02,21,01,34,4.30
2015,02,21,01,35,4.30
2015,02,21,01,36,4.30
2015,02,21,01,37,4.40
2015,02,21,01,38,4.40
2015,02,21,01,39,4.40
2015,02,21,01,40,4.50
2015,02,21,01,41,4.40
2015,02,21,01,42,4.50
2015,02,21,01,43,4.50
2015,02,21,01,44,4.50
2015,02,21,01,45,4.60
2015,02,21,01,46,4.60
2015,02,21,01,47,4.60
2015,02,21,01,48,4.70
2015,02,21,01,49,4.70
2015,02,21,01,50,4.70
2015,02,21,01,51,4.80
2015,02,21,01,52,4.90
2015,02,21,01,53,5.00
2015,02,21,01,54,5.10
2015,02,21,01,55,5.20
2015,02,21,01,56,5.30
2015,02,21,01,57,5.30
2015,02,21,01,58,5.40
2015,02,21,01,59,5.50
2015,02,21,02,00,5.50
2015,02,21,02,01,5.60
2015,02,21,02,02,5.60
2015,02,21,02,03,5.70
2015,02,21,02,04,5.70
2015,02,21,02,05,5.70
2015,02,21,02,06,5.70
2015,02,21,02,07,5.70
2015,02,21,02,08,5.70
2015,02,21,02,09,5.60
2015,02,21,02,10,5.60
2015,02,21,02,11,5.50
2015,02,21,02,12,5.40
2015,02,21,02,13,5.40
2015,02,21,02,14,5.30
2015,02,21,02,15,5.30
2015,02,21,02,16,5.30
2015,02,21,02,17,5.30
2015,02,21,02,18,5.30
2015,02,21,02,19,5.20
2015,02,21,02,20,5.20
2015,02,21,02,21,5.20
2015,02,21,02,22,5.20
2015,02,21,02,23,5.20
2015,02,21,02,24,5.10
2015,02,21,02,25,5.10
2015,02,21,02,26,5.10
2015,02,21,02,27,5.00
2015,02,21,02,28,5.00
2015,02,21,02,29,4.90
2015,02,21,02,30,4.80
2015,02,21,02,31,4.80
2015,02,21,02,32,4.70
2015,02,21,02,33,4.60
2015,02,21,02,34,4.60
2015,02,21,02,35,4.50
2015,02,21,02,36,4.40
2015,02,21,02,37,4.40
2015,02,21,02,38,4.30
2015,02,21,02,39,4.30
2015,02,21,02,40,4.20
2015,02,21,02,41,4.10
2015,02,21,02,42,4.10
2015,02,21,02,43,4.10
2015,02,21,02,44,4.00
2015,02,21,02,45,4.00
2015,02,21,02,46,3.90
2015,02,21,02,47,3.90
2015,02,21,02,48,3.80
2015,02,21,02,49,3.80
2015,02,21,02,50,3.70
2015,02,21,02,51,3.70
2015,02,21,02,52,3.60
2015,02,21,02,53,3.60
2015,02,21,02,54,3.60
2015,02,21,02,55,3.60
2015,02,21,02,56,3.50
2015,02,21,02,57,3.50
2015,02,21,02,58,3.40
2015,02,21,02,59,3.40
2015,02,21,03,00,3.40
2015,02,21,03,01,3.40
2015,02,21,03,02,3.30
2015,02,21,03,03,3.30
2015,02,21,03,04,3.30
2015,02,21,03,05,3.30
2015,02,21,03,06,3.30
2015,02,21,03,07,3.30
2015,02,21,03,08,3.30
2015,02,21,03,09,3.30
2015,02,21,03,10,3.30
2015,02,21,03,11,3.30
2015,02,21,03,12,3.30
2015,02,21,03,13,3.30
2015,02,21,03,14,3.30
2015,02,21,03,15,3.30
2015,02,21,03,16,3.30
2015,02,21,03,17,3.30
2015,02,21,03,18,3.30
2015,02,21,03,19,3.30
2015,02,21,03,20,3.30
2015,02,21,03,21,3.30
2015,02,21,03,22,3.30
2015,02,21,03,23,3.30
2015,02,21,03,24,3.30
2015,02,21,03,25,3.30
2015,02,21,03,26,3.30
2015,02,21,03,27,3.30
2015,02,21,03,28,3.20
2015,02,21,03,29,3.20
2015,02,21,03,30,3.10
2015,02,21,03,31,3.10
2015,02,21,03,32,3.10
2015,02,21,03,33,3.00
2015,02,21,03,34,3.00
2015,02,21,03,35,2.90
2015,02,21,03,36,2.90
2015,02,21,03,37,2.90
2015,02,21,03,38,2.90
2015,02,21,03,39,2.90
2015,02,21,03,40,2.80
2015,02,21,03,41,2.80
2015,02,21,03,42,2.80
2015,02,21,03,43,2.80
2015,02,21,03,44,2.70
2015,02,21,03,45,2.70
2015,02,21,03,46,2.70
2015,02,21,03,47,2.70
2015,02,21,03,48,2.70
2015,02,21,03,49,2.60
2015,02,21,03,50,2.60
2015,02,21,03,51,2.60
2015,02,21,03,52,2.60
2015,02,21,03,53,2.50
2015,02,21,03,54,2.50
2015,02,21,03,55,2.40
2015,02,21,03,56,2.40
2015,02,21,03,57,2.40
2015,02,21,03,58,2.40
2015,02,21,03,59,2.30
2015,02,21,04,00,2.30
2015,02,21,04,01,2.30
2015,02,21,04,02,2.30
2015,02,21,04,03,2.30
2015,02,21,04,04,2.30
2015,02,21,04,05,2.30
2015,02,21,04,06,2.30
2015,02,21,04,07,2.30
2015,02,21,04,08,2.30
2015,02,21,04,09,2.30
2015,02,21,04,10,2.30
2015,02,21,04,11,2.30
2015,02,21,04,12,2.30
2015,02,21,04,13,2.30
2015,02,21,04,14,2.30
2015,02,21,04,15,2.30
2015,02,21,04,16,2.30
2015,02,21,04,17,2.30
2015,02,21,04,18,2.20
2015,02,21,04,19,2.20
2015,02,21,04,20,2.30
2015,02,21,04,21,2.30
2015,02,21,04,22,2.30
2015,02,21,04,23,2.20
2015,02,21,04,24,2.20
2015,02,21,04,25,2.20
2015,02,21,04,26,2.20
2015,02,21,04,27,2.20
2015,02,21,04,28,2.20
2015,02,21,04,29,2.20
2015,02,21,04,30,2.20
2015,02,21,04,31,2.20
2015,02,21,04,32,2.20
2015,02,21,04,33,2.20
2015,02,21,04,34,2.20
2015,02,21,04,35,2.20
2015,02,21,04,36,2.20
2015,02,21,04,37,2.20
2015,02,21,04,38,2.20
2015,02,21,04,39,2.20
2015,02,21,04,40,2.20
2015,02,21,04,41,2.20
2015,02,21,04,42,2.20
2015,02,21,04,43,2.20
2015,02,21,04,44,2.20
2015,02,21,04,45,2.20
2015,02,21,04,46,2.20
2015,02,21,04,47,2.20
2015,02,21,04,48,2.10
2015,02,21,04,49,2.10
2015,02,21,04,50,2.10
2015,02,21,04,51,2.10
2015,02,21,04,52,2.00
2015,02,21,04,53,2.00
2015,02,21,04,54,2.00
2015,02,21,04,55,2.00
2015,02,21,04,56,1.90
2015,02,21,04,57,1.90
2015,02,21,04,58,1.90
2015,02,21,04,59,1.80
2015,02,21,05,00,1.80
2015,02,21,05,01,1.80
2015,02,21,05,02,1.80
2015,02,21,05,03,1.70
2015,02,21,05,04,1.70
2015,02,21,05,05,1.70
2015,02,21,05,06,1.70
2015,02,21,05,07,1.70
2015,02,21,05,08,1.60
2015,02,21,05,09,1.60
2015,02,21,05,10,1.60
2015,02,21,05,11,1.50
2015,02,21,05,12,1.50
2015,02,21,05,13,1.40
2015,02,21,05,14,1.40
2015,02,21,05,15,1.40
2015,02,21,05,16,1.40
2015,02,21,05,17,1.40
2015,02,21,05,18,1.40
2015,02,21,05,19,1.40
2015,02,21,05,20,1.40
2015,02,21,05,21,1.30
2015,02,21,05,22,1.30
2015,02,21,05,23,1.30
2015,02,21,05,24,1.40
2015,02,21,05,25,1.50
2015,02,21,05,26,1.50
2015,02,21,05,27,1.60
2015,02,21,05,28,1.60
2015,02,21,05,29,1.60
2015,02,21,05,30,1.60
2015,02,21,05,31,1.60
2015,02,21,05,32,1.60
2015,02,21,05,33,1.60
2015,02,21,05,34,1.60
2015,02,21,05,35,1.60
2015,02,21,05,36,1.60
2015,02,21,05,37,1.50
2015,02,21,05,38,1.50
2015,02,21,05,39,1.50
2015,02,21,05,40,1.60
2015,02,21,05,41,1.60
2015,02,21,05,42,1.60
2015,02,21,05,43,1.60
2015,02,21,05,44,1.60
2015,02,21,05,45,1.60
2015,02,21,05,46,1.60
2015,02,21,05,47,1.70
2015,02,21,05,48,1.70
2015,02,21,05,49,1.70
2015,02,21,05,50,1.70
2015,02,21,05,51,1.70
2015,02,21,05,52,1.70
2015,02,21,05,53,1.70
2015,02,21,05,54,1.70
2015,02,21,05,55,1.70
2015,02,21,05,56,1.70
2015,02,21,05,57,1.70
2015,02,21,05,58,1.70
2015,02,21,05,59,1.70
2015,02,21,06,00,1.60
2015,02,21,06,01,1.60
2015,02,21,06,02,1.50
2015,02,21,06,03,1.50
2015,02,21,06,04,1.50
2015,02,21,06,05,1.50
2015,02,21,06,06,1.50
2015,02,21,06,07,1.50
2015,02,21,06,08,1.50
2015,02,21,06,09,1.60
2015,02,21,06,10,1.60
2015,02,21,06,11,1.70
2015,02,21,06,12,1.70
2015,02,21,06,13,1.80
2015,02,21,06,14,1.80
2015,02,21,06,15,1.80
2015,02,21,06,16,1.80
2015,02,21,06,17,1.80
2015,02,21,06,18,1.80
2015,02,21,06,19,1.80
2015,02,21,06,20,1.80
2015,02,21,06,21,1.80
2015,02,21,06,22,1.70
2015,02,21,06,23,1.70
2015,02,21,06,24,1.70
2015,02,21,06,25,1.70
2015,02,21,06,26,1.70
2015,02,21,06,27,1.60
2015,02,21,06,28,1.60
2015,02,21,06,29,1.60
2015,02,21,06,30,1.60
2015,02,21,06,31,1.60
2015,02,21,06,32,1.60
2015,02,21,06,33,1.60
2015,02,21,06,34,1.60
2015,02,21,06,35,1.60
2015,02,21,06,36,1.60
2015,02,21,06,37,1.50
2015,02,21,06,38,1.50
2015,02,21,06,39,1.50
2015,02,21,06,40,1.60
2015,02,21,06,41,1.60
2015,02,21,06,42,1.60
2015,02,21,06,43,1.60
2015,02,21,06,44,1.70
2015,02,21,06,45,1.70
2015,02,21,06,46,1.60
2015,02,21,06,47,1.60
2015,02,21,06,48,1.70
2015,02,21,06,49,1.70
2015,02,21,06,50,1.70
2015,02,21,06,51,1.90
2015,02,21,06,52,2.20
2015,02,21,06,53,2.40
2015,02,21,06,54,2.50
2015,02,21,06,55,2.60
2015,02,21,06,56,2.70
2015,02,21,06,57,2.70
2015,02,21,06,58,2.60
2015,02,21,06,59,2.60
2015,02,21,07,00,2.50
2015,02,21,07,01,2.50
2015,02,21,07,02,2.50
2015,02,21,07,03,2.40
2015,02,21,07,04,2.40
2015,02,21,07,05,2.40
2015,02,21,07,06,2.40
2015,02,21,07,07,2.40
2015,02,21,07,08,2.40
2015,02,21,07,09,2.50
2015,02,21,07,10,2.50
2015,02,21,07,11,2.60
2015,02,21,07,12,2.70
2015,02,21,07,13,2.70
2015,02,21,07,14,2.80
2015,02,21,07,15,2.80
2015,02,21,07,16,2.90
2015,02,21,07,17,3.00
2015,02,21,07,18,3.00
2015,02,21,07,19,3.10
2015,02,21,07,20,3.10
2015,02,21,07,21,3.10
2015,02,21,07,22,3.10
2015,02,21,07,23,3.20
2015,02,21,07,24,3.20
2015,02,21,07,25,3.20
2015,02,21,07,26,3.20
2015,02,21,07,27,3.20
2015,02,21,07,28,3.30
2015,02,21,07,29,3.30
2015,02,21,07,30,3.30
2015,02,21,07,31,3.30
2015,02,21,07,32,3.30
2015,02,21,07,33,3.30
2015,02,21,07,34,3.30
2015,02,21,07,35,3.40
2015,02,21,07,36,3.40
2015,02,21,07,37,3.40
2015,02,21,07,38,3.40
2015,02,21,07,39,3.40
2015,02,21,07,40,3.50
2015,02,21,07,41,3.50
2015,02,21,07,42,3.40
2015,02,21,07,43,3.40
2015,02,21,07,44,3.40
2015,02,21,07,45,3.40
2015,02,21,07,46,3.50
2015,02,21,07,47,3.50
2015,02,21,07,48,3.50
2015,02,21,07,49,3.50
2015,02,21,07,50,3.50
2015,02,21,07,51,3.50
2015,02,21,07,52,3.60
2015,02,21,07,53,3.60
2015,02,21,07,54,3.60
2015,02,21,07,55,3.70
2015,02,21,07,56,3.80
2015,02,21,07,57,3.80
2015,02,21,07,58,3.90
2015,02,21,07,59,4.00
2015,02,21,08,00,4.10
2015,02,21,08,01,4.10
2015,02,21,08,02,4.20
2015,02,21,08,03,4.30
2015,02,21,08,04,4.40
2015,02,21,08,05,4.50
2015,02,21,08,06,4.60
2015,02,21,08,07,4.80
2015,02,21,08,08,4.90
2015,02,21,08,09,5.10
2015,02,21,08,10,5.20
2015,02,21,08,11,5.20
2015,02,21,08,12,5.30
2015,02,21,08,13,5.40
2015,02,21,08,14,5.50
2015,02,21,08,15,5.50
2015,02,21,08,16,5.60
2015,02,21,08,17,5.60
2015,02,21,08,18,5.70
2015,02,21,08,19,5.70
2015,02,21,08,20,5.80
2015,02,21,08,21,5.80
2015,02,21,08,22,5.90
2015,02,21,08,23,5.90
2015,02,21,08,24,6.00
2015,02,21,08,25,6.00
2015,02,21,08,26,6.00
2015,02,21,08,27,6.10
2015,02,21,08,28,6.10
2015,02,21,08,29,6.20
2015,02,21,08,30,6.20
2015,02,21,08,31,6.30
2015,02,21,08,32,6.30
2015,02,21,08,33,6.40
2015,02,21,08,34,6.50
2015,02,21,08,35,6.60
2015,02,21,08,36,6.70
2015,02,21,08,37,6.80
2015,02,21,08,38,6.90
2015,02,21,08,39,6.90
2015,02,21,08,40,7.10
2015,02,21,08,41,7.10
2015,02,21,08,42,7.20
2015,02,21,08,43,7.30
2015,02,21,08,44,7.30
2015,02,21,08,45,7.40
2015,02,21,08,46,7.40
2015,02,21,08,47,7.50
2015,02,21,08,48,7.60
2015,02,21,08,49,7.70
2015,02,21,08,50,7.80
2015,02,21,08,51,7.80
2015,02,21,08,52,7.90
2015,02,21,08,53,7.90
2015,02,21,08,54,8.00
2015,02,21,08,55,8.00
2015,02,21,08,56,8.10
2015,02,21,08,57,8.10
2015,02,21,08,58,8.10
2015,02,21,08,59,8.10
2015,02,21,09,00,8.20
2015,02,21,09,01,8.20
2015,02,21,09,02,8.20
2015,02,21,09,03,8.20
2015,02,21,09,04,8.20
2015,02,21,09,05,8.30
2015,02,21,09,06,8.30
2015,02,21,09,07,8.30
2015,02,21,09,08,8.30
2015,02,21,09,09,8.30
2015,02,21,09,10,8.40
2015,02,21,09,11,8.40
2015,02,21,09,12,8.40
2015,02,21,09,13,8.50
2015,02,21,09,14,8.50
2015,02,21,09,15,8.50
2015,02,21,09,16,8.60
2015,02,21,09,17,8.60
2015,02,21,09,18,8.60
2015,02,21,09,19,8.70
2015,02,21,09,20,8.70
2015,02,21,09,21,8.70
2015,02,21,09,22,8.70
2015,02,21,09,23,8.80
2015,02,21,09,24,8.80
2015,02,21,09,25,8.80
2015,02,21,09,26,8.80
2015,02,21,09,27,8.80
2015,02,21,09,28,8.90
2015,02,21,09,29,8.90
2015,02,21,09,30,8.90
2015,02,21,09,31,9.00
2015,02,21,09,32,9.00
2015,02,21,09,33,9.00
2015,02,21,09,34,9.10
2015,02,21,09,35,9.10
2015,02,21,09,36,9.10
2015,02,21,09,37,9.10
2015,02,21,09,38,9.20
2015,02,21,09,39,9.20
2015,02,21,09,40,9.20
2015,02,21,09,41,9.20
2015,02,21,09,42,9.30
2015,02,21,09,43,9.30
2015,02,21,09,44,9.30
2015,02,21,09,45,9.30
2015,02,21,09,46,9.30
2015,02,21,09,47,9.40
2015,02,21,09,48,9.40
2015,02,21,09,49,9.40
2015,02,21,09,50,9.40
2015,02,21,09,51,9.50
2015,02,21,09,52,9.50
2015,02,21,09,53,9.60
2015,02,21,09,54,9.60
2015,02,21,09,55,9.60
2015,02,21,09,56,9.60
2015,02,21,09,57,9.60
2015,02,21,09,58,9.70
2015,02,21,09,59,9.70
2015,02,21,10,00,9.70
2015,02,21,10,01,9.70
2015,02,21,10,02,9.80
2015,02,21,10,03,9.80
2015,02,21,10,04,9.80
2015,02,21,10,05,9.80
2015,02,21,10,06,9.90
2015,02,21,10,07,9.90
2015,02,21,10,08,9.90
2015,02,21,10,09,9.90
2015,02,21,10,10,9.90
2015,02,21,10,11,9.90
2015,02,21,10,12,9.90
2015,02,21,10,13,10.00
2015,02,21,10,14,10.00
2015,02,21,10,15,10.00
2015,02,21,10,16,10.10
2015,02,21,10,17,10.10
2015,02,21,10,18,10.20
2015,02,21,10,19,10.20
2015,02,21,10,20,10.20
2015,02,21,10,21,10.30
2015,02,21,10,22,10.30
2015,02,21,10,23,10.30
2015,02,21,10,24,10.30
2015,02,21,10,25,10.40
2015,02,21,10,26,10.40
2015,02,21,10,27,10.40
2015,02,21,10,28,10.50
2015,02,21,10,29,10.50
2015,02,21,10,30,10.50
2015,02,21,10,31,10.60
2015,02,21,10,32,10.60
2015,02,21,10,33,10.60
2015,02,21,10,34,10.60
2015,02,21,10,35,10.60
2015,02,21,10,36,10.70
2015,02,21,10,37,10.70
2015,02,21,10,38,10.70
2015,02,21,10,39,10.80
2015,02,21,10,40,10.80
2015,02,21,10,41,10.80
2015,02,21,10,42,10.80
2015,02,21,10,43,10.80
2015,02,21,10,44,10.80
2015,02,21,10,45,10.90
2015,02,21,10,46,10.90
2015,02,21,10,47,10.90
2015,02,21,10,48,10.90
2015,02,21,10,49,10.90
2015,02,21,10,50,10.90
2015,02,21,10,51,11.00
2015,02,21,10,52,11.00
2015,02,21,10,53,11.00
2015,02,21,10,54,11.10
2015,02,21,10,55,11.10
2015,02,21,10,56,11.10
2015,02,21,10,57,11.20
2015,02,21,10,58,11.20
2015,02,21,10,59,11.20
2015,02,21,11,00,11.20
2015,02,21,11,01,11.20
2015,02,21,11,02,11.20
2015,02,21,11,03,11.20
2015,02,21,11,04,11.30
2015,02,21,11,05,11.30
2015,02,21,11,06,11.30
2015,02,21,11,07,11.30
2015,02,21,11,08,11.30
2015,02,21,11,09,11.30
2015,02,21,11,10,11.40
2015,02,21,11,11,11.40
2015,02,21,11,12,11.40
2015,02,21,11,13,11.40
2015,02,21,11,14,11.40
2015,02,21,11,15,11.40
2015,02,21,11,16,11.40
2015,02,21,11,17,11.40
2015,02,21,11,18,11.40
2015,02,21,11,19,11.40
2015,02,21,11,20,11.40
2015,02,21,11,21,11.50
2015,02,21,11,22,11.50
2015,02,21,11,23,11.50
2015,02,21,11,24,11.50
2015,02,21,11,25,11.50
2015,02,21,11,26,11.50
2015,02,21,11,27,11.60
2015,02,21,11,28,11.60
2015,02,21,11,29,11.60
2015,02,21,11,30,11.60
2015,02,21,11,31,11.70
2015,02,21,11,32,11.70
2015,02,21,11,33,11.70
2015,02,21,11,34,11.80
2015,02,21,11,35,11.80
2015,02,21,11,36,11.80
2015,02,21,11,37,11.90
2015,02,21,11,38,11.90
2015,02,21,11,39,11.90
2015,02,21,11,40,11.90
2015,02,21,11,41,12.00
2015,02,21,11,42,12.00
2015,02,21,11,43,12.10
2015,02,21,11,44,12.10
2015,02,21,11,45,12.10
2015,02,21,11,46,12.10
2015,02,21,11,47,12.10
2015,02,21,11,48,12.10
2015,02,21,11,49,12.20
2015,02,21,11,50,12.20
2015,02,21,11,51,12.20
2015,02,21,11,52,12.20
2015,02,21,11,53,12.20
2015,02,21,11,54,12.20
2015,02,21,11,55,12.20
2015,02,21,11,56,12.30
2015,02,21,11,57,12.40
2015,02,21,11,58,12.50
2015,02,21,11,59,12.50
2015,02,21,12,00,12.60
2015,02,21,12,01,12.60
2015,02,21,12,02,12.70
2015,02,21,12,03,12.70
2015,02,21,12,04,12.70
2015,02,21,12,05,12.80
2015,02,21,12,06,12.80
2015,02,21,12,07,12.90
2015,02,21,12,08,12.90
2015,02,21,12,09,13.00
2015,02,21,12,10,13.00
2015,02,21,12,11,13.00
2015,02,21,12,12,13.00
2015,02,21,12,13,13.10
2015,02,21,12,14,13.10
2015,02,21,12,15,13.20
2015,02,21,12,16,13.20
2015,02,21,12,17,13.30
2015,02,21,12,18,13.30
2015,02,21,12,19,13.40
2015,02,21,12,20,13.40
2015,02,21,12,21,13.40
2015,02,21,12,22,13.40
2015,02,21,12,23,13.40
2015,02,21,12,24,13.30
2015,02,21,12,25,13.30
2015,02,21,12,26,13.30
2015,02,21,12,27,13.30
2015,02,21,12,28,13.30
2015,02,21,12,29,13.20
2015,02,21,12,30,13.20
2015,02,21,12,31,13.20
2015,02,21,12,32,13.20
2015,02,21,12,33,13.30
2015,02,21,12,34,13.30
2015,02,21,12,35,13.30
2015,02,21,12,36,13.30
2015,02,21,12,37,13.40
2015,02,21,12,38,13.40
2015,02,21,12,39,13.40
2015,02,21,12,40,13.40
2015,02,21,12,41,13.40
2015,02,21,12,42,13.40
2015,02,21,12,43,13.30
2015,02,21,12,44,13.40
2015,02,21,12,45,13.40
2015,02,21,12,46,13.40
2015,02,21,12,47,13.40
2015,02,21,12,48,13.40
2015,02,21,12,49,13.40
2015,02,21,12,50,13.40
2015,02,21,12,51,13.40
2015,02,21,12,52,13.40
2015,02,21,12,53,13.40
2015,02,21,12,54,13.40
2015,02,21,12,55,13.40
2015,02,21,12,56,13.40
2015,02,21,12,57,13.40
2015,02,21,12,58,13.40
2015,02,21,12,59,13.40
2015,02,21,13,00,13.40
2015,02,21,13,01,13.40
2015,02,21,13,02,13.50
2015,02,21,13,03,13.50
2015,02,21,13,04,13.60
2015,02,21,13,05,13.60
2015,02,21,13,06,13.70
2015,02,21,13,07,13.70
2015,02,21,13,08,13.70
2015,02,21,13,09,13.70
2015,02,21,13,10,13.70
2015,02,21,13,11,13.70
2015,02,21,13,12,13.80
2015,02,21,13,13,13.80
2015,02,21,13,14,13.80
2015,02,21,13,15,13.90
2015,02,21,13,16,13.90
2015,02,21,13,17,13.90
2015,02,21,13,18,13.90
2015,02,21,13,19,13.90
2015,02,21,13,20,14.00
2015,02,21,13,21,14.00
2015,02,21,13,22,14.00
2015,02,21,13,23,14.00
2015,02,21,13,24,14.00
2015,02,21,13,25,14.10
2015,02,21,13,26,14.10
2015,02,21,13,27,14.00
2015,02,21,13,28,14.00
2015,02,21,13,29,13.90
2015,02,21,13,30,14.00
2015,02,21,13,31,14.00
2015,02,21,13,32,14.00
2015,02,21,13,33,14.00
2015,02,21,13,34,14.00
2015,02,21,13,35,13.90
2015,02,21,13,36,13.90
2015,02,21,13,37,13.90
2015,02,21,13,38,13.90
2015,02,21,13,39,13.90
2015,02,21,13,40,14.00
2015,02,21,13,41,14.00
2015,02,21,13,42,14.10
2015,02,21,13,43,14.10
2015,02,21,13,44,14.20
2015,02,21,13,45,14.20
2015,02,21,13,46,14.20
2015,02,21,13,47,14.30
2015,02,21,13,48,14.20
2015,02,21,13,49,14.20
2015,02,21,13,50,14.20
2015,02,21,13,51,14.20
2015,02,21,13,52,14.20
2015,02,21,13,53,14.20
2015,02,21,13,54,14.20
2015,02,21,13,55,14.20
2015,02,21,13,56,14.30
2015,02,21,13,57,14.30
2015,02,21,13,58,14.40
2015,02,21,13,59,14.40
2015,02,21,14,00,14.40
2015,02,21,14,01,14.40
2015,02,21,14,02,14.30
2015,02,21,14,03,14.30
2015,02,21,14,04,14.30
2015,02,21,14,05,14.30
2015,02,21,14,06,14.30
2015,02,21,14,07,14.40
2015,02,21,14,08,14.40
2015,02,21,14,09,14.40
2015,02,21,14,10,14.40
2015,02,21,14,11,14.40
2015,02,21,14,12,14.50
2015,02,21,14,13,14.50
2015,02,21,14,14,14.50
2015,02,21,14,15,14.50
2015,02,21,14,16,14.50
2015,02,21,14,17,14.50
2015,02,21,14,18,14.60
2015,02,21,14,19,14.60
2015,02,21,14,20,14.60
2015,02,21,14,21,14.60
2015,02,21,14,22,14.60
2015,02,21,14,23,14.60
2015,02,21,14,24,14.60
2015,02,21,14,25,14.60
2015,02,21,14,26,14.70
2015,02,21,14,27,14.60
2015,02,21,14,28,14.60
2015,02,21,14,29,14.60
2015,02,21,14,30,14.50
2015,02,21,14,31,14.40
2015,02,21,14,32,14.40
2015,02,21,14,33,14.30
2015,02,21,14,34,14.40
2015,02,21,14,35,14.40
2015,02,21,14,36,14.40
2015,02,21,14,37,14.40
2015,02,21,14,38,14.40
2015,02,21,14,39,14.50
2015,02,21,14,40,14.50
2015,02,21,14,41,14.40
2015,02,21,14,42,14.40
2015,02,21,14,43,14.50
2015,02,21,14,44,14.50
2015,02,21,14,45,14.60
2015,02,21,14,46,14.60
2015,02,21,14,47,14.60
2015,02,21,14,48,14.60
2015,02,21,14,49,14.60
2015,02,21,14,50,14.60
2015,02,21,14,51,14.60
2015,02,21,14,52,14.60
2015,02,21,14,53,14.70
2015,02,21,14,54,14.70
2015,02,21,14,55,14.70
2015,02,21,14,56,14.60
2015,02,21,14,57,14.60
2015,02,21,14,58,14.60
2015,02,21,14,59,14.60
2015,02,21,15,00,14.60
2015,02,21,15,01,14.60
2015,02,21,15,02,14.70
2015,02,21,15,03,14.70
2015,02,21,15,04,14.70
2015,02,21,15,05,14.70
2015,02,21,15,06,14.70
2015,02,21,15,07,14.70
2015,02,21,15,08,14.70
2015,02,21,15,09,14.70
2015,02,21,15,10,14.80
2015,02,21,15,11,14.80
2015,02,21,15,12,14.70
2015,02,21,15,13,14.70
2015,02,21,15,14,14.70
2015,02,21,15,15,14.70
2015,02,21,15,16,14.60
2015,02,21,15,17,14.60
2015,02,21,15,18,14.60
2015,02,21,15,19,14.60
2015,02,21,15,20,14.60
2015,02,21,15,21,14.60
2015,02,21,15,22,14.60
2015,02,21,15,23,14.60
2015,02,21,15,24,14.60
2015,02,21,15,25,14.60
2015,02,21,15,26,14.60
2015,02,21,15,27,14.60
2015,02,21,15,28,14.60
2015,02,21,15,29,14.60
2015,02,21,15,30,14.60
2015,02,21,15,31,14.60
2015,02,21,15,32,14.40
2015,02,21,15,33,14.10
2015,02,21,15,34,13.70
2015,02,21,15,35,13.30
2015,02,21,15,36,13.00
2015,02,21,15,37,12.80
2015,02,21,15,38,12.60
2015,02,21,15,39,12.40
2015,02,21,15,40,12.20
2015,02,21,15,41,12.10
2015,02,21,15,42,12.00
2015,02,21,15,43,11.90
2015,02,21,15,44,11.90
2015,02,21,15,45,11.80
2015,02,21,15,46,11.80
2015,02,21,15,47,11.80
2015,02,21,15,48,11.70
2015,02,21,15,49,11.70
2015,02,21,15,50,11.60
2015,02,21,15,51,11.60
2015,02,21,15,52,11.50
2015,02,21,15,53,11.50
2015,02,21,15,54,11.40
2015,02,21,15,55,11.30
2015,02,21,15,56,11.30
2015,02,21,15,57,11.20
2015,02,21,15,58,11.20
2015,02,21,15,59,11.10
2015,02,21,16,00,11.10
2015,02,21,16,01,11.10
2015,02,21,16,02,11.10
2015,02,21,16,03,11.00
2015,02,21,16,04,11.00
2015,02,21,16,05,11.00
2015,02,21,16,06,10.90
2015,02,21,16,07,10.90
2015,02,21,16,08,10.80
2015,02,21,16,09,10.80
2015,02,21,16,10,10.70
2015,02,21,16,11,10.70
2015,02,21,16,12,10.70
2015,02,21,16,13,10.70
2015,02,21,16,14,10.70
2015,02,21,16,15,10.70
2015,02,21,16,16,10.70
2015,02,21,16,17,10.70
2015,02,21,16,18,10.70
2015,02,21,16,19,10.70
2015,02,21,16,20,10.70
2015,02,21,16,21,10.80
2015,02,21,16,22,10.80
2015,02,21,16,23,10.80
2015,02,21,16,24,10.80
2015,02,21,16,25,10.80
2015,02,21,16,26,10.80
2015,02,21,16,27,10.80
2015,02,21,16,28,10.80
2015,02,21,16,29,10.80
2015,02,21,16,30,10.80
2015,02,21,16,31,10.80
2015,02,21,16,32,10.70
2015,02,21,16,33,10.70
2015,02,21,16,34,10.70
2015,02,21,16,35,10.70
2015,02,21,16,36,10.70
2015,02,21,16,37,10.70
2015,02,21,16,38,10.70
2015,02,21,16,39,10.70
2015,02,21,16,40,10.60
2015,02,21,16,41,10.60
2015,02,21,16,42,10.60
2015,02,21,16,43,10.60
2015,02,21,16,44,10.60
2015,02,21,16,45,10.60
2015,02,21,16,46,10.70
2015,02,21,16,47,10.70
2015,02,21,16,48,10.70
2015,02,21,16,49,10.70
2015,02,21,16,50,10.70
2015,02,21,16,51,10.70
2015,02,21,16,52,10.70
2015,02,21,16,53,10.70
2015,02,21,16,54,10.70
2015,02,21,16,55,10.70
2015,02,21,16,56,10.70
2015,02,21,16,57,10.70
2015,02,21,16,58,10.70
2015,02,21,16,59,10.70
2015,02,21,17,00,10.60
2015,02,21,17,01,10.70
2015,02,21,17,02,10.70
2015,02,21,17,03,10.70
2015,02,21,17,04,10.70
2015,02,21,17,05,10.70
2015,02,21,17,06,10.70
2015,02,21,17,07,10.70
2015,02,21,17,08,10.80
2015,02,21,17,09,10.80
2015,02,21,17,10,10.80
2015,02,21,17,11,10.70
2015,02,21,17,12,10.70
2015,02,21,17,13,10.70
2015,02,21,17,14,10.70
2015,02,21,17,15,10.60
2015,02,21,17,16,10.60
2015,02,21,17,17,10.60
2015,02,21,17,18,10.50
2015,02,21,17,19,10.50
2015,02,21,17,20,10.50
2015,02,21,17,21,10.40
2015,02,21,17,22,10.40
2015,02,21,17,23,10.40
2015,02,21,17,24,10.30
2015,02,21,17,25,10.30
2015,02,21,17,26,10.30
2015,02,21,17,27,10.20
2015,02,21,17,28,10.20
2015,02,21,17,29,10.20
2015,02,21,17,30,10.20
2015,02,21,17,31,10.10
2015,02,21,17,32,10.10
2015,02,21,17,33,10.10
2015,02,21,17,34,10.00
2015,02,21,17,35,10.00
2015,02,21,17,36,10.00
2015,02,21,17,37,9.90
2015,02,21,17,38,9.90
2015,02,21,17,39,9.80
2015,02,21,17,40,9.80
2015,02,21,17,41,9.80
2015,02,21,17,42,9.70
2015,02,21,17,43,9.70
2015,02,21,17,44,9.70
2015,02,21,17,45,9.60
2015,02,21,17,46,9.60